www.pogodaiklimat.ru

Погода и климат >> Архив погоды >> Россия >> Челябинская область >> Магнитогорск


АРХИВ ПОГОДЫ в Магнитогорске

Время (UTC), дата Ветер
(напр.,м/с)
 
Видим.   Явления Облачность Т
(С)
Тd
(С)
f
(%)
Тe
(С)
Тes
(С)
Комфортность P
(гПа)
Po
(гПа)
Тmin
(С)
Tmax
(С)
R
(мм)
R24
(мм)
S
(см)
18 14.05 В 6
{10}
10 км {гроза, ливн. осадки} 9/9 600 м
[Sc]
+10.8 +7.7 81 +8 +8 по сезону 1021.0 975.2
21 14.05 В 6-10
{11}
10 км 8/8 600 м
[Sc]
+8.5 +4.7 77 +5 +5 по сезону 1022.6 976.4
00 15.05 СВ 3
{10}
20 км 10/10 600 м
[Sc]
+7.8 +2.9 71 +5 +5 по сезону 1024.0 977.6
03 15.05 В 6 20 км 10/10 1000 м
[Sc]
+8.2 +1.8 64 +4 +4 холодно 1024.5 978.1 +7.8 0.4
06 15.05 В 6 20 км 10/10 1000 м
[Sc]
+8.1 +0.2 57 +4 +4 очень
холодно
1025.6 979.1
09 15.05 ЮВ 6 20 км 10/10 1000 м
[Sc]
+8.4 -1.4 50 +5 +5 очень
холодно
1026.4 980.0
12 15.05 В 6 20 км 10/10 600 м
[Sc]
+5.9 +2.3 78 +1 +1 очень
холодно
1027.3 980.4
15 15.05 ЮВ 2 20 км {дождь} 10/10 600 м
[Sc]
+7.7 +1.2 63 +6 +6 очень
холодно
1025.6 979.1 +8.5 0.6
18 15.05 СВ 2 10 км {дождь} 8/8 600 м
[Sc]
+5.0 +1.3 77 +3 +3 холодно 1026.3 979.3
21 15.05 С 2 10 км 9/9 600 м
[Sc]
+4.7 +1.1 77 +2 +2 холодно 1025.8 978.8
00 16.05 С 2 20 км 10/10 600 м
[Sc]
+5.5 +0.9 72 +3 +3 по сезону 1025.1 978.2
03 16.05 ЮВ 2
{10}
20 км {снег} 9/9 600 м
[Sc]
+8.5 +1.0 59 +7 +7 прохладно 1024.5 978.2 +3.5 0.4 34
06 16.05 СЗ 4
{10}
20 км 6/6 600 м
[Sc]
+2.0 -11.8 35 -2 +2 очень
холодно
1019.3 972.0
09 16.05 Ю 4
{10}
20 км 4/0
[Ac trans]
+17.2 -6.8 19 +17 +25 по сезону 1021.0 976.1
12 16.05 Ю 5
{10}
20 км 4/0
[Ac trans]
+17.8 -3.8 23 +17 +20 по сезону 1019.2 974.5
15 16.05 З 3 20 км 10/10 600 м
[Sc]
+12.9 +3.4 52 +12 +12 по сезону 1019.2 973.8 +18.8
18 16.05 штиль 0 10 км 10/10 600 м
[Sc]
+11.7 +4.0 59 +11 +11 по сезону 1017.3 971.8
21 16.05 С 1 10 км 10/10 600 м
[Sc]
+11.1 +5.3 67 +11 +11 тепло 1014.7 969.3
00 17.05 Ю 3 20 км 10/10 600 м
[Sc]
+9.3 +5.9 79 +7 +7 по сезону 1013.1 967.4
03 17.05 ЮЗ 3 20 км {дождь} 8/8 600 м
[Sc]
+11.0 +7.4 78 +9 +10 по сезону 1009.9 964.7 +8.7 2
06 17.05 З 6 20 км {дождь} 10/10 600 м
[Sc]
+15.4 +11.0 75 +14 +14 по сезону 1007.4 963.0
09 17.05 З 4 20 км 10/10 600 м
[Cb cap]
+15.8 +10.0 68 +15 +15 по сезону 1006.2 961.9
12 17.05 СЗ 5-12
{12}
20 км {ливн. осадки} 6/6 600 м
[Cu med, cong]
+15.8 +7.9 59 +15 +16 прохладно 1006.3 962.0
15 17.05 СЗ 5-10
{12}
20 км 3/3 600 м
[Sc diur, vesp]
+11.9 +3.3 56 +10 +10 прохладно 1008.3 963.3 +16.5 0.6
18 17.05 С 5
{14}
10 км 8/0
[Ac trans]
+5.9 +0.7 69 +2 +2 очень
холодно
1012.2 966.0
21 17.05 С 1 10 км 8/0
[Ac trans]
+3.7 -0.5 74 +2 +2 холодно 1012.1 965.6
00 18.05 СЗ 2 20 км ясно +2.4 -1.3 77 -1 -1 холодно 1012.0 965.2
03 18.05 СЗ 3 20 км ясно +7.5 -2.4 49 +5 +8 прохладно 1010.8 964.9 +1.9
06 18.05 З 4 20 км 3/3 600 м
[Cu hum]
+11.0 -4.1 34 +9 +15 холодно 1008.7 963.4
09 18.05 З 6-10
{11}
20 км 6/6 600 м
[Cu hum]
+13.4 -3.4 31 +12 +14 прохладно 1006.1 961.3
12 18.05 З 6-10
{14}
20 км 8/8 600 м
[Cb calv]
+12.2 -2.4 36 +10 +11 очень
холодно
1005.5 960.6
15 18.05 З 2
{13}
20 км 9/9 600 м
[Cb calv]
+8.4 +2.6 67 +7 +7 холодно 1006.0 960.5 +14.3
18 18.05 З 3 10 км слаб. ливневой дождь 10/10 600 м
[Sc]
+6.1 +2.7 79 +3 +3 холодно 1006.1 960.2
21 18.05 З 3 10 км {ливн. осадки} 4/4 600 м
[Sc]
+5.0 +0.3 72 +2 +2 холодно 1005.1 959.1
00 19.05 З 3 20 км {ливн. осадки} 9/0
[Ac trans]
+4.6 -1.3 66 +1 +1 прохладно 1004.9 958.8
03 19.05 З 3 20 км 10/0
[Ac As]
+4.5 -1.9 63 +1 +2 очень
холодно
1005.4 959.2 +4.2 0.7
06 19.05 СЗ 6-11
{11}
20 км 8/8 600 м
[Sc]
+6.5 -4.6 45 +3 +4 очень
холодно
1005.7 959.9
09 19.05 З 6-11
{12}
20 км 8/8 600 м
[Sc]
+11.1 -6.2 29 +9 +10 очень
холодно
1004.9 959.8
12 19.05 З 6-11
{12}
20 км 9/9 600 м
[Sc]
+9.8 -5.0 35 +7 +7 очень
холодно
1006.2 960.8
15 19.05 З 2
{11}
20 км 8/8 600 м
[Sc]
+8.0 -4.3 41 +7 +7 холодно 1006.9 961.2 +11.2
18 19.05 СЗ 3 10 км {дождь} 9/9 600 м
[Sc]
+5.0 -2.6 58 +2 +2 очень
холодно
1008.2 962.0
21 19.05 СЗ 3 10 км 6/6 600 м
[Sc]
+3.2 -1.9 69 -0 -0 очень
холодно
1008.4 961.9
00 20.05 СЗ 4 20 км 6/6 600 м
[Sc]
+2.4 -2.4 71 -2 -2 очень
холодно
1008.8 962.2
03 20.05 СЗ 4 20 км 4/4 600 м
[Sc]
+5.5 -2.6 56 +2 +4 очень
холодно
1009.2 963.1 +2.0 0.0
06 20.05 СЗ 4
{10}
20 км 8/8 600 м
[Sc]
+6.4 -4.1 47 +3 +5 очень
холодно
1009.6 963.6
09 20.05 СЗ 5
{10}
20 км 8/8 600 м
[Sc]
+9.8 -5.6 33 +7 +9 очень
холодно
1009.1 963.6
12 20.05 СЗ 4-10
{12}
20 км 6/6 600 м
[Cu med, cong]
+11.0 -5.6 31 +9 +11 очень
холодно
1008.9 963.6
15 20.05 СЗ 5
{12}
20 км 3/3 600 м
[Sc diur, vesp]
+8.1 -4.4 41 +5 +5 очень
холодно
1010.3 964.5 +11.4
18 20.05 З 2
{10}
10 км ясно +4.5 -3.6 56 +2 +2 очень
холодно
1012.1 965.6
21 20.05 С 2 10 км ясно +2.0 -2.4 73 -1 -1 очень
холодно
1012.4 965.6
00 21.05 СЗ 3 20 км ясно +2.4 -1.9 73 -2 -2 очень
холодно
1012.3 965.5
03 21.05 СЗ 2 20 км 8/0
[Ac trans]
+7.0 -0.5 59 +5 +7 холодно 1012.6 966.5 +1.1
06 21.05 СЗ 5 20 км 8/8
[Cb cap]
+9.8 -5.9 33 +7 +9 очень
холодно
1012.0 966.4
09 21.05 СЗ 4
{11}
20 км 8/8 600 м
[Cb cap]
+10.8 -6.9 28 +9 +11 очень
холодно
1012.0 966.5
12 21.05 СЗ 7-11
{13}
20 км 6/6 600 м
[Cb cap]
+10.5 -6.7 29 +8 +8 очень
холодно
1012.8 967.3
15 21.05 СЗ 4
{11}
20 км 8/8 600 м
[Sc]
+10.2 -6.5 30 +8 +8 холодно 1013.7 968.1 +13.1

 

Местоположение метеостанции Магнитогорск (Челябинская область, Россия): широта 53.35 долгота 59.08 высота над уровнем моря 384 м.

В архиве по умолчанию представлена погода в Магнитогорске за последнюю неделю. Архивные данные за месяц целиком и за предыдущие месяцы, начиная с января 2011 года, Вы можете получить, выбрав интересующий диапазон дат из раскрывающегося списка и нажав кнопку "Ввод!".


*Определитесь, кто Вы:
робот инопланетянин человек

Внимание! Время в таблицах - всемирное. Для получения местного времени необходимо прибавить поправку, которая равна 5 ч.

Смотрите также архив погоды в соседних городах и на ближайших метеорологических станциях:

Погода в Верхнеуральске (Челябинская область, Россия) (59 км)
Погода в Кизильском (Челябинская область, Россия) (71 км)
Погода в Белорецке (Башкирия, Россия) (81 км)
Погода в Карталы (Челябинская область, Россия) (111 км)
Погода в Тукане (Башкирия, Россия) (112 км)
Погода в Старосубхангулово (Башкирия, Россия) (113 км)
Погода в Учалах (Башкирия, Россия) (115 км)
Погода в Николаевке (Башкирия, Россия) (116 км)
Погода в Бредах (Челябинская область, Россия) (133 км)
Погода в Ревети (Башкирия, Россия) (133 км)

Пояснения к столбцам:

Ветер - указаны скорость ветра в м/с - средняя за 10 мин, порывы в срок и между сроками (в фигурных скобках) и направление, откуда дует ветер: С - северный, СВ - северо-восточный, В - восточный, ЮВ - юго-восточный, Ю - южный, ЮЗ - юго-западный, З - западный, СЗ - северо-западный.
Видимость - горизонтальная дальность видимости в метрах или километрах. При видимости от 1 до 10 км при отсутствии осадков обычно наблюдается дымка, при ухудшении видимости до 1 км и менее - туман. В сухую погоду видимость может ухудшаться дымом, пылью или мглою.
Явления - указаны атмосферные явления, наблюдавшиеся в срок или в последний час перед сроком; фигурными скобками обозначены явления, наблюдавшиеся между сроками (за 1-3 часа до срока); квадратными скобками обозначены град или гололедные отложения с указанием их диаметра в мм.
Облачность - указаны через наклонную черту общая и нижняя облачность в баллах и высота нижней границы облаков в метрах; квадратными скобками обозначены формы облаков: Ci - перистые, Cs - перисто-слоистые, Cc - перисто-кучевые, Ac - высококучевые, As - высокослоистые, Sc - слоисто-кучевые, Ns - слоисто-дождевые, Cu - кучевые, Cb - кучево-дождевые. Подробнее классификацию облаков см. в Атласе облаков (PDF).
T - Температура воздуха - температура, измеренная на высоте 2 м над землей.
Td - Температура точки росы - температура, при понижении до которой содержащийся в воздухе водяной пар достигнет насыщения.
f - Относительная влажность воздуха - влажноcть воздуха, измеренная на высоте 2 м над землей.
Te - Эффективная температура - температура, которую ощущает одетый по сезону человек в тени. Характеристика душности погоды. При расчете учитывается влияние влажности воздуха и скорости ветра на теплоощущения человека.
Tes - Эффективная температура на солнце - температура, которую ощущает человек, с поправкой на солнечный нагрев. Характеристика знойности погоды. Зависит от высоты солнца над горизонтом, облачности и скорости ветра. Ночью, в пасмурную погоду, а также при ветре 12 м/с и более поправка равна нулю.
P - Атмосферное давление - приведенное к уровню моря атмосферное давление.
Po - Атмосферное давление - измеренное на уровне метеостанции атмосферное давление.
Tmin - Минимальная температура - минимум температуры воздуха на высоте 2 м над землей.
Tmax - Максимальная температура - максимум температуры воздуха на высоте 2 м над землей.
R - Количество осадков - Количество выпавших осадков за период времени, мм. При наведении курсора мыши на число - период времени, за который выпало указанное количество осадков.
R24 - Количество осадков - Количество выпавших осадков за 24 часа, мм.
S - Снежный покров - Высота снежного покрова, см. При наведении курсора мыши на число - состояние снежного покрова и степень покрытия местности в баллах.